Flag for Argentina Weather past 2 weeks in Jujuy, Jujuy, Argentina

Now
64 °F

Sunny.


Feels Like: 64 °F
Forecast: 42 / 71 °F
Wind: No wind

Location: Jujuy Aerodrome

Current Time: Jul 22, 2014 at 10:42:47 AM

Latest Report: Jul 22, 2014 at 10:00 AM


Visibility: 10 mi

Pressure: 29.86 "Hg

Humidity: 52%

Dew point: 46 °F

Location of JujuyLocation

Historic Weather in Jujuy — Graph

°F

Jujuy temperature yesterday

Maximum temperature yesterday: 81 °F (at 2:00 PM)
Minimum temperature yesterday: 48 °F (at 2:00 AM)
Average temperature yesterday: 61 °F

Past Weeks' High & Low Weather Summary

 TemperatureHumidityPressure
High140 °F (Jul 10, 2:00 AM)94% (Jul 14, 12:00 AM)30.48 "Hg (Jul 14, 12:00 AM)
Low39 °F (Jul 8, 8:00 AM)4% (Jul 10, 2:00 AM)29.68 "Hg (Jul 21, 3:00 PM)
Average58 °F68%30.09 "Hg
* Reported Jul 7 9:00 AM — Jul 22 9:00 AM, Jujuy, Weather by CustomWeather, © 2014

Note: Actual official high and low records may vary slightly from our data, if they occured in-between our weather recording intervals... More about our weather records

Advertising

Jujuy weather history for previous 24 hours

 ConditionsComfort  
Time TempWeatherWind HumidityBarometerVisibility
9:00 AM
Jul 22
54 °FSunny.6 mph67%29.83 "Hg10 mi
8:00 AM50 °FSunny.7 mph76%29.83 "Hg10 mi
7:00 AM48 °FClear.8 mph82%29.80 "Hg10 mi
6:00 AM52 °FClear.9 mph82%29.80 "Hg10 mi
5:00 AM52 °FClear.14 mph82%29.77 "Hg10 mi
3:00 AM52 °FClear.9 mph77%29.83 "Hg10 mi
2:00 AM52 °FClear.12 mph82%29.83 "Hg10 mi
1:00 AM54 °FClear.8 mph82%29.83 "Hg10 mi
12:00 AM54 °FClear.6 mph77%29.86 "Hg10 mi
11:00 PM
Jul 21
55 °FClear.3 mph77%29.86 "Hg10 mi
10:00 PM55 °FClear.12 mph82%29.86 "Hg10 mi
9:00 PM59 °FClear.8 mph72%29.83 "Hg10 mi
8:00 PM64 °FClear.3 mph64%29.80 "Hg10 mi
7:00 PM68 °FClear.8 mph53%29.77 "Hg10 mi
6:00 PM73 °FClear.13 mph47%29.74 "Hg10 mi
5:00 PM75 °FSunny.12 mph44%29.71 "Hg10 mi
4:00 PM81 °FSunny.12 mph34%29.68 "Hg10 mi
3:00 PM81 °FSunny.6 mph34%29.68 "Hg10 mi
2:00 PM81 °FSunny.8 mph30%29.71 "Hg10 mi
1:00 PM75 °FSunny.3 mph39%29.77 "Hg10 mi
12:00 PM72 °FSunny.3 mph41%29.80 "Hg10 mi
11:00 AM68 °FSunny.6 mph49%29.83 "Hg10 mi
10:00 AM59 °FSunny.6 mph63%29.83 "Hg10 mi
Weather by CustomWeather, © 2014

See weather overviewHow to use our weather pages